Theta_e
308 308 309 309 309 309 309 309 309 309 309 309 309 309 309 309 309 309 310 311 312 312 315 314 313 314 316 317 317 317 312 313 315 315 317 317 317 317 318 319 319 319 321 322 324
307 308 308 309 309 309 309 309 309 309 309 309 309 309 309 309 309 309 310 311 311 311 315 314 312 314 316 316 315 313 309 313 312 313 315 317 317 317 317 317 318 319 322 323 323
307 307 308 308 308 308 308 309 309 308 308 308 308 308 308 308 309 310 310 312 311 312 313 313 313 315 315 315 315 313 312 312 313 314 316 316 316 317 315 313 317 318 320 323 324
307 307 307 308 308 308 308 308 308 308 308 308 308 308 308 308 309 314 312 311 310 312 312 314 314 314 313 313 314 312 313 313 314 314 314 315 315 315 316 317 317 317 317 320 322
307 307 307 307 308 308 308 308 308 308 308 308 308 308 308 308 310 312 313 313 311 311 312 313 314 314 311 313 313 312 312 313 314 313 314 314 314 314 315 317 317 317 318 319 320
307 307 307 307 308 308 308 308 308 308 308 308 308 308 308 311 310 313 312 311 311 311 311 312 313 314 314 313 312 313 313 313 313 313 313 313 312 314 314 314 315 316 317 318 319
308 307 307 307 307 307 307 308 307 307 307 307 308 308 308 309 311 312 311 312 311 311 311 312 314 314 314 313 314 314 312 312 312 313 313 314 310 311 313 315 314 314 316 317 318
308 308 307 307 307 307 307 307 307 307 307 307 308 308 308 309 311 309 310 311 311 312 312 313 314 314 314 314 313 311 309 310 310 311 313 311 308 309 314 314 313 314 314 316 316
307 307 307 307 307 307 307 307 307 307 307 308 308 309 309 311 311 311 310 310 311 312 313 313 313 314 314 309 310 309 308 310 311 311 312 311 309 311 314 314 314 314 315 314 315
309 307 307 307 307 307 307 307 307 308 309 309 311 310 310 311 311 311 310 311 311 313 313 313 314 309 306 306 308 311 311 310 310 311 312 311 310 308 313 312 313 314 314 315 315
314 308 307 307 307 307 307 309 311 312 313 310 311 310 310 312 310 311 311 311 312 312 309 312 309 309 308 307 307 308 311 311 311 311 312 310 310 308 312 313 312 313 313 313 314
315 312 308 308 307 307 308 310 310 311 312 309 314 312 311 313 312 311 312 312 311 309 310 310 308 307 308 308 309 310 311 311 310 311 312 310 309 307 309 310 312 313 313 314 314
313 316 310 308 308 309 308 309 311 316 316 314 314 312 313 312 311 311 312 312 310 309 309 308 309 309 310 309 310 310 309 310 310 310 309 309 306 307 308 310 313 313 313 315 315
315 314 311 309 311 309 310 311 316 317 309 313 315 313 313 312 313 311 312 312 310 308 308 310 310 309 310 310 309 310 310 310 310 308 307 308 306 307 309 307 307 312 313 314 315
316 314 311 310 312 311 309 317 317 315 311 311 316 314 313 312 312 312 312 313 310 309 308 309 310 310 310 310 309 310 310 309 310 308 311 309 308 306 306 309 310 311 314 315 317
316 315 311 311 313 311 309 318 315 314 311 318 316 314 312 313 313 312 312 313 312 310 309 309 311 309 309 309 309 308 310 308 307 307 308 307 306 306 308 311 312 312 314 316 316
313 314 314 312 314 314 311 314 314 313 311 317 316 313 312 312 312 311 311 311 312 311 311 312 312 311 310 310 310 308 306 309 309 310 308 308 307 306 309 310 312 312 314 315 315
309 310 313 314 315 315 313 313 315 311 313 316 315 313 313 312 312 311 311 312 309 309 310 312 313 311 310 309 310 307 307 309 308 313 310 310 311 312 310 311 312 312 313 314 314
309 309 309 313 315 316 315 313 315 315 313 317 316 316 315 314 312 312 309 311 310 308 310 311 311 310 309 309 310 311 311 308 310 299 308 310 311 311 311 311 311 312 314 314 314
306 308 307 308 312 315 314 312 312 311 314 315 317 315 316 314 313 312 311 310 311 309 310 310 312 311 310 311 311 310 309 313 309 308 310 309 311 309 313 312 310 310 312 313 312
305 306 306 307 310 307 309 308 310 311 312 314 315 315 314 314 313 313 312 311 310 309 311 312 311 312 310 311 311 312 312 312 311 310 310 310 310 309 312 310 310 311 311 311 311
304 305 305 307 307 307 307 308 310 312 311 311 309 311 314 314 313 312 313 313 312 311 312 312 310 309 311 312 312 313 311 312 311 312 311 311 313 312 309 310 310 310 310 310 311
302 303 305 309 309 308 308 309 310 311 312 311 311 310 309 312 317 314 314 313 312 311 312 313 311 312 313 314 312 314 313 312 312 310 312 313 311 309 309 309 310 310 310 308 307
300 303 302 307 307 308 309 309 309 310 311 310 311 310 311 309 311 314 316 314 314 314 314 314 312 313 314 314 313 314 314 314 314 314 311 312 313 309 310 309 308 309 305 305 305
299 298 301 306 305 308 308 308 309 309 309 311 311 312 311 312 311 313 311 314 313 312 313 312 313 314 312 312 312 310 312 314 315 314 315 314 314 313 312 309 307 305 304 303 303
299 298 299 299 306 306 308 308 308 308 308 310 311 311 311 311 312 313 310 312 314 312 312 309 311 311 311 312 312 313 314 313 315 315 316 316 316 311 307 306 305 303 301 301 301
299 299 299 298 300 306 306 307 308 307 305 307 309 310 311 310 309 307 312 311 312 312 311 308 308 310 312 310 309 307 309 312 313 313 314 315 313 306 304 304 303 301 300 300 300
Wind_Speed
25 24 23 22 20 18 18 16 15 14 13 12 11 10 9 9 9 10 11 8 10 8 12 10 8 9 8 6 3 2 4 2 1 3 4 7 4 4 7 12 6 8 8 5 22
24 24 24 23 21 20 17 17 15 14 13 12 10 10 10 9 9 12 10 11 9 11 13 12 11 11 5 3 3 4 4 6 2 2 4 5 5 8 5 8 3 7 9 15 25
25 24 24 23 22 21 19 18 16 15 13 12 11 10 9 8 6 8 14 12 11 12 13 14 12 9 4 4 2 3 5 4 2 1 5 4 4 3 10 3 10 14 16 20 25
24 24 24 23 22 21 20 18 17 15 13 12 11 9 8 8 5 5 12 14 12 15 15 14 10 9 4 4 4 4 2 3 4 2 2 4 3 4 9 5 3 13 13 20 23
24 24 24 24 22 21 20 18 17 15 13 12 10 9 8 7 6 2 9 14 14 16 15 15 15 7 6 5 5 3 5 4 5 2 3 2 2 4 10 12 10 6 19 21 22
22 24 24 23 22 22 20 19 17 15 13 12 11 10 9 6 6 6 5 13 14 16 16 15 10 8 5 4 5 6 5 5 4 4 2 1 1 1 4 11 16 11 17 21 22
20 22 23 23 23 21 21 19 17 15 14 12 11 10 11 11 6 8 8 11 13 16 17 15 10 6 8 5 6 6 3 4 5 5 2 2 5 8 12 4 7 17 15 19 21
20 22 23 22 22 21 20 18 17 15 14 12 10 10 7 12 10 7 10 12 13 14 16 16 10 7 3 10 4 4 5 2 2 8 3 4 8 4 1 11 14 12 15 20 22
20 22 24 23 21 20 19 17 16 15 13 12 10 8 5 10 15 11 11 11 14 14 12 13 10 4 5 6 4 5 3 4 4 8 4 3 6 5 5 5 2 6 15 18 20
22 23 24 24 22 21 18 17 15 14 12 11 8 6 9 10 15 16 14 13 12 15 11 10 5 4 3 4 6 7 4 4 4 6 2 4 9 9 15 13 14 16 19 22 23
22 24 25 25 24 23 22 19 12 5 21 9 9 4 9 14 15 16 17 17 12 11 5 4 4 7 10 9 4 5 4 3 2 4 4 7 8 10 20 20 22 25 27 28 30
30 25 26 27 25 24 24 22 20 5 7 18 5 9 12 15 8 18 21 10 8 5 5 4 5 10 6 4 5 3 2 4 2 1 2 3 10 10 16 18 29 30 29 29 27
41 29 28 27 26 27 30 28 18 10 4 10 16 18 13 17 8 24 26 9 5 6 6 7 5 8 6 5 6 5 7 5 4 0 1 4 7 6 5 8 11 18 20 17 16
40 35 29 29 27 31 32 25 17 10 2 5 10 9 15 13 4 20 29 13 3 9 9 4 3 9 5 6 6 6 5 5 4 4 4 2 5 6 6 10 7 21 15 10 8
39 43 39 38 21 33 33 23 17 9 4 6 9 13 18 14 16 12 28 8 9 7 7 7 7 6 5 6 5 5 3 5 2 4 2 3 1 7 4 6 6 10 11 9 9
28 40 36 35 28 30 27 26 19 3 7 5 6 8 8 6 4 9 11 7 7 5 3 4 1 5 8 3 3 9 6 8 5 3 3 8 7 5 3 3 2 6 10 11 11
14 32 35 36 30 25 30 26 3 7 3 7 5 6 8 6 5 5 9 7 8 6 4 1 2 1 4 7 4 4 7 3 2 1 6 2 3 7 5 4 2 5 10 9 10
7 14 27 35 33 29 33 10 7 7 7 4 5 7 9 6 3 6 13 12 7 5 4 7 4 8 4 7 9 7 8 6 7 4 4 1 5 3 2 11 16 16 17 22 22
9 12 6 16 33 38 29 10 10 6 7 8 5 6 6 5 6 5 6 12 14 10 9 6 5 1 3 4 11 6 6 6 6 3 3 3 5 1 2 6 13 17 23 21 21
10 10 11 7 6 43 16 8 4 1 3 2 7 6 9 11 7 9 9 6 6 11 3 8 3 1 3 6 0 6 8 3 2 3 3 3 3 5 4 6 6 10 13 18 19
12 7 6 11 0 11 5 4 3 5 2 1 4 6 6 8 7 8 8 5 14 10 6 5 5 0 5 7 9 4 4 2 5 5 6 2 5 4 7 7 6 5 8 14 17
11 3 12 12 2 3 3 6 4 6 5 4 4 4 2 2 8 9 12 4 12 17 17 7 6 5 6 1 1 1 6 6 5 5 2 4 3 3 8 10 13 14 15 15 18
8 4 17 12 3 3 3 5 7 7 6 6 2 2 3 3 3 10 6 0 5 9 14 9 4 4 4 3 1 3 4 4 4 3 8 7 5 5 6 11 16 18 17 17 18
4 3 3 7 3 4 6 6 4 5 6 8 5 6 4 4 5 2 4 2 2 3 6 12 3 10 15 5 9 6 6 6 7 5 4 8 10 8 7 8 10 15 18 18 18
4 3 3 4 4 2 6 8 8 6 3 11 5 8 6 6 5 5 2 4 4 3 5 4 6 3 3 5 3 5 9 12 16 16 14 9 8 14 7 10 12 17 16 17 17
5 3 2 1 10 5 6 9 12 5 7 5 3 12 10 5 5 5 7 2 3 3 3 3 3 3 2 4 4 2 3 7 5 3 0 1 5 6 11 18 18 16 14 16 14
16 6 2 1 3 9 6 3 9 7 1 6 11 8 12 13 6 3 5 10 7 6 3 5 5 3 6 6 5 5 10 6 4 3 6 10 6 8 5 14 17 13 13 13 12
Wind_Direction
199 197 197 193 196 202 203 201 208 205 212 214 210 207 211 207 211 217 214 210 198 183 178 170 156 161 153 159 138 124 71 137 184 205 182 170 124 128 146 145 158 176 174 190 168
202 200 198 199 195 199 207 204 204 211 209 213 216 215 214 215 214 222 210 197 182 187 176 169 154 149 130 142 166 94 102 193 219 198 180 158 148 143 144 149 138 174 179 163 168
200 200 202 200 201 196 202 210 205 206 210 212 210 215 216 217 234 232 209 195 185 181 173 160 149 146 127 154 165 150 162 198 137 98 132 146 119 166 141 223 193 198 177 173 176
198 202 201 199 203 203 200 205 210 207 210 213 216 211 215 203 192 208 197 198 184 179 179 167 165 153 129 153 169 108 118 178 163 142 156 157 160 176 205 200 173 224 210 190 189
195 197 202 201 198 206 204 203 207 211 206 213 215 210 208 215 239 188 189 189 183 181 181 178 170 155 147 166 138 134 171 168 159 182 162 223 176 223 240 224 223 209 202 207 205
197 191 196 203 200 202 207 205 207 205 207 206 209 206 198 219 223 212 178 183 181 183 184 181 189 180 133 171 160 170 150 163 197 188 169 219 271 295 256 230 227 220 216 218 218
197 194 191 199 202 200 203 205 203 205 205 204 206 202 207 220 213 203 192 181 183 185 184 177 165 185 150 117 133 128 104 339 213 197 159 191 292 236 250 234 204 217 216 222 227
199 198 191 200 199 201 201 202 201 200 205 202 200 200 228 221 207 185 186 181 182 185 187 186 175 163 159 126 66 94 59 125 297 151 179 137 267 276 304 246 234 236 220 225 235
200 204 195 196 197 198 197 199 197 196 200 197 194 187 223 211 207 199 186 186 180 181 178 183 182 141 124 95 41 0 180 199 297 202 129 149 254 251 113 60 270 258 240 239 239
204 205 205 191 193 195 188 189 190 188 188 180 192 198 228 208 193 192 180 173 163 172 154 162 144 92 53 98 192 191 196 224 209 215 118 173 261 275 266 285 276 273 258 248 248
209 207 204 195 190 192 181 169 161 181 188 175 197 226 184 180 182 183 176 169 164 166 148 177 118 186 192 192 161 147 149 155 238 197 137 215 259 269 281 289 279 271 266 262 256
209 210 203 199 190 192 183 182 184 181 194 204 234 210 181 172 159 181 176 164 155 171 121 59 217 214 185 166 177 184 206 231 4 99 156 217 262 260 263 261 270 276 278 276 277
202 213 205 199 190 194 191 192 186 186 166 205 201 205 177 188 192 184 180 169 142 151 169 156 226 165 159 171 174 194 180 197 196 227 291 329 294 317 293 260 273 281 289 290 293
202 207 204 195 193 196 199 181 178 170 93 202 191 220 199 190 221 185 184 167 161 177 152 204 207 149 169 195 149 187 199 156 152 90 230 49 281 308 276 299 309 293 299 288 321
196 198 201 194 193 196 200 175 170 167 195 197 171 185 178 174 143 184 185 179 160 168 130 229 183 153 181 188 164 214 128 141 111 111 69 314 83 269 281 286 279 5 49 86 71
181 184 188 192 196 202 184 174 164 95 239 171 145 161 136 169 159 128 167 170 151 123 56 176 202 165 179 82 138 145 78 47 49 74 289 203 166 279 226 224 342 21 69 68 58
145 177 184 193 200 190 178 173 111 197 211 185 171 154 162 153 146 163 169 172 159 128 166 121 189 173 139 84 41 86 89 27 336 346 230 77 113 246 241 344 139 81 74 72 70
143 154 193 199 193 193 177 140 205 176 209 117 134 132 179 147 194 162 155 189 244 137 123 159 221 168 189 163 167 185 157 163 199 200 242 116 229 237 71 114 97 90 83 73 69
164 198 185 190 186 183 168 187 205 170 171 147 91 139 190 208 139 138 200 199 198 183 160 160 231 135 139 147 151 194 209 165 111 14 60 218 279 84 46 80 82 78 76 64 58
155 170 222 243 156 185 176 206 209 182 147 159 160 162 177 181 157 182 173 192 203 185 204 196 131 316 146 112 272 165 160 89 358 134 239 256 243 210 143 106 67 72 77 60 54
161 144 196 214 22 124 183 178 180 208 147 114 150 153 172 171 170 200 211 218 195 182 146 139 108 254 127 212 160 155 184 165 135 162 182 179 250 225 149 143 131 101 81 63 58
159 132 162 160 124 151 127 158 176 170 110 94 66 80 114 92 181 202 206 235 194 156 193 185 130 167 191 293 330 289 214 156 159 219 212 152 249 94 128 141 116 90 94 86 70
139 116 172 188 186 167 159 155 183 147 165 144 141 88 100 105 266 195 177 325 170 178 171 175 191 119 1 331 1 219 208 152 110 68 197 162 202 162 147 109 109 102 90 83 72
152 135 165 226 192 162 151 172 154 142 148 150 145 145 143 181 230 251 169 157 115 117 108 158 120 204 215 200 136 193 194 196 175 196 162 215 146 181 161 141 112 105 100 87 72
201 214 183 189 205 181 159 168 174 159 150 155 158 171 159 197 191 205 299 136 68 119 61 96 160 121 113 134 98 166 178 182 204 211 204 188 172 172 148 147 131 117 97 78 67
192 184 154 116 165 182 182 199 187 169 152 186 181 178 171 188 203 178 147 261 134 53 83 6 103 109 127 90 76 164 180 198 189 149 236 212 249 137 143 122 115 104 85 70 57
216 214 197 173 146 192 189 186 197 139 245 190 180 165 200 211 195 240 161 150 173 150 124 127 134 148 172 129 98 311 206 192 195 194 179 218 184 152 146 124 120 102 77 65 49